User: anonymous   Login
Location: Newark
(34.1333°N, 7.9667°W)
Time: 14:31:39
(UTC+00:00)
Language:

A-11 Canister half - Orbit

View from above orbital plane
View from above orbital plane
View from above satellite
View from above satellite

Ground track
Ground track

The orbit data is extracted from the following two-line orbital elements,

1 00053U 60009E   21172.45117177 -.00000016  00000-0  68402-3 0  9990
2 00053  47.2733 201.0527 0096444  92.0454 269.1382 12.17255189713513
Epoch (UTC): 21 June 2021 10:49:41
Eccentricity: 0.0096444
inclination: 47.2733°
perigee height: 1527 km
apogee height: 1681 km
right ascension of ascending node: 201.0527°
argument of perigee: 92.0454°
revolutions per day: 12.17255189
mean anomaly at epoch: 269.1382°
orbit number at epoch: 71351

The dashed part of the orbit path shows where the satellite is in the earth's shadow,  

DLR